STARLINK-31942, 59899

Orbit data source: Space-Track

STARLINK-31942, 59899 is a payload satellite owned by SpaceX/Seattle (US) in LEO that was launched on Tue, 28 May 2024 UTC via an FALCON 9 launch vehicle from the Air Force Eastern Test Range (AFETR). Payload-class satellites include a variety of spacecraft equipped with specific instruments for various scientific and technological missions. These include communications satellites like Starlink; space stations such as the ISS; scientific satellites like the Hubble; Earth observation satellites from companies like Planet Labs, Umbra, and HawkEye 360; GPS; miniature CubeSats for education and research; and military/defense satellites.

Loading next visibility...
Identifier
59899, 2024-100Q
Orbit
LEO
Country
Flag of USUS
Related business
Manufacturer
SpaceX/Seattle
Mission
Operational spacecraft
Bus & Motor
STARLINK V2M, Unknown motor
Mass
730 kg wet, ~700 kg dry
Launch date (UTC)
2024-05-28 (1 year ago)
Launch vehicle
FALCON 9
Launch site
Air Force Eastern Test Range (AFETR)
Object type
Payload
Rocket body
Debris
Shape & HBR
Unknown
Radar Cross Section
Large (>1 m²)

Expand to show TLE details & history
Last TLE update: 23 hours ago

TLE from 23 hours ago
0 STARLINK-31942
1 59899U 24100Q   25260.05578633 -.00000029  00000-0  84682-5 0  9994
2 59899  43.0045  25.8310 0001650 276.0355  84.0309 15.27584348 74593
Epoch: 2025-09-17T01:20Z
TLE epoch observation values (Epoch: 2025-09-17T01:20:19.938Z)
Latitude
-0.00001°
Longitude
9.51069°
Altitude
482.694 km
Speed
7.626 km/s
True Right ascension
01h 43m 19s
True Declination
0° 00' 00"
Sunlit
Object was in full shadow at epoch
Visualization orbit readout
Latitude
Unknown
Longitude
Unknown
Altitude
Unknown
Speed
Unknown
Apparent Right ascension
Unknown
Apparent Declination
Unknown
Sunlit
N/A
Visualization observer readout
Local Sidereal Time
17:34:30
Azimuth
Unknown
Elevation
Unknown
Doppler factor
Unknown
Orbital elements
Apogee altitude
486.113 km
Perigee altitude
483.848 km
Semi-major axis
6,863.117 km
Eccentricity
0.00017
Inclination
43.0045°
RAAN
25.831°
Arg. of periapsis
276.0355°
True anomaly
84.04971°
Mean anomaly
84.0309°
Eccentric anomaly
84.0403°
Mean motion
3.81734 °/min
Orbital period
94.31 mins
BSTAR
0.0000084682
Loading maneuver chart data...
Computing Atmospheric mass density...
Loading historical data...
Loading historical data...
Loading historical data...
Loading historical data...
Loading historical data...
Loading historical data...
Loading historical data...

Documentation

Showing up to 5 results
|